Location: Wilhelmshaven
(53.5279°N, 8.1063°E)
Time: 22:13:13
(UTC+02:00)

ISS - Pass Details

Date: 10 July 2022
Orbit: 412 x 420 km, 51.6° (Epoch: 19 August)

Event Time Altitude Azimuth Distance (km) Brightness Sun altitude
Exits shadow 00:55:16 27° 154° (SSE) 841 -2.8 -13.8°
Maximum altitude 00:55:20 27° 153° (SSE) 841 -2.8 -13.8°
Drops below altitude 10° 00:58:13 10° 93° (E) 1,499 -1.1 -13.8°
Sets 01:00:31 0° 81° (E) 2,368 0.1 -13.9°
